Location: Kikino
(54.4440°N, 112.0940°W)
Time: 19:01:59
(UTC+00:00)

A-11 Canister half - Pass Details

Date: 24 May 2024
Orbit: 1525 x 1683 km, 47.3° (Epoch: 12 June)

Event Time Altitude Azimuth Distance (km) Brightness Sun altitude
Rises 02:15:31 0° 177° (S) 4,669 11.3 9.9°
Reaches altitude 10° 02:20:33 10° 154° (SSE) 3,707 10.6 9.2°
Maximum altitude 02:24:45 14° 127° (SE) 3,425 10.3 8.6°
Drops below altitude 10° 02:28:58 10° 99° (E) 3,758 10.5 8.1°
Sets 02:34:06 0° 77° (ENE) 4,780 11.1 7.4°
